Location: Arcusa
(42.3167°N, 0.0833°W)
Time: 09:14:53
(UTC+00:00)

SL-16 R/B - Pass Details

Date: 25 January 2020
Orbit: 842 x 846 km, 71.0° (Epoch: 16 February)

Event Time Altitude Azimuth Distance (km) Brightness Sun altitude
Rises 06:43:51 0° 240° (WSW) 3,393 5.0 -7.2°
Reaches altitude 10° 06:46:44 10° 254° (WSW) 2,462 4.1 -6.7°
Maximum altitude 06:51:18 25° 308° (NW) 1,661 3.2 -5.9°
Drops below altitude 10° 06:55:54 10° 2° (N) 2,475 4.5 -5.1°
Sets 06:58:49 0° 16° (NNE) 3,414 5.3 -4.6°
